Wind_Speed
51 50 50 49 49 49 49 50 49 48 47 47 46 46 45 44 44 45 44 43 43 43 42 42 42 42 43 43 43 43 43 43 43 44 44 44 45 45
50 50 51 51 51 50 50 49 48 49 48 47 46 46 45 44 45 45 45 44 43 43 42 41 42 43 43 43 44 44 44 43 44 44 45 45 46 46
50 49 50 49 49 48 49 48 48 48 48 47 46 44 44 45 44 44 43 43 42 42 42 42 42 43 44 44 45 45 45 44 44 45 46 46 46 47
48 48 47 48 48 48 48 48 47 47 47 47 45 45 44 44 44 43 42 42 43 42 42 42 43 44 44 45 45 45 46 45 44 45 46 46 46 46
47 46 45 46 46 45 46 47 47 46 46 45 44 44 44 44 44 43 42 43 43 42 42 43 44 44 45 44 45 45 46 45 45 46 46 46 46 46
46 45 45 45 45 45 46 45 44 44 43 42 43 43 43 43 44 44 44 44 43 43 43 44 44 45 45 44 44 45 45 46 46 46 46 45 46 46
46 46 46 45 45 45 44 44 44 43 42 42 42 42 42 42 43 44 44 45 44 44 44 44 44 44 44 45 45 45 45 45 45 46 45 46 46 45
45 45 44 44 44 44 44 43 43 43 42 42 42 42 41 42 42 43 44 44 44 44 44 43 43 43 43 43 44 44 45 45 45 45 45 45 45 43
45 43 43 43 43 44 44 44 44 44 43 43 43 41 41 41 41 42 42 43 43 43 43 42 42 42 42 43 43 44 44 45 45 45 45 44 43 42
44 44 43 43 44 44 44 44 44 44 43 43 42 41 41 41 41 42 42 41 41 41 41 41 42 42 42 43 42 43 43 44 44 44 44 43 42 40
42 41 42 42 41 42 42 42 41 41 41 41 41 41 40 40 40 41 40 41 40 40 40 40 40 40 40 41 42 42 42 43 43 43 43 41 39 38
40 40 39 39 39 39 39 40 39 39 39 40 40 40 39 39 40 40 40 40 40 40 39 40 40 40 40 40 40 41 42 42 42 42 41 40 38 37
39 39 38 37 37 38 38 38 37 37 38 38 39 39 38 37 37 38 39 39 39 39 39 39 39 39 40 39 39 39 40 41 41 41 40 38 37 36
37 37 37 37 37 37 37 37 37 37 37 37 37 37 36 36 36 37 38 38 38 38 38 39 39 39 39 39 39 39 39 39 39 38 36 35 34 34
35 35 35 35 35 36 36 37 37 37 38 37 38 37 37 37 37 37 37 37 37 37 38 38 38 39 39 39 39 38 37 36 36 34 33 33 33 32
34 34 34 34 34 34 35 35 36 36 36 37 37 37 38 37 37 36 36 36 36 36 37 38 38 38 38 38 38 37 35 34 33 31 30 30 31 31
33 32 32 33 34 33 34 34 35 35 35 36 36 35 34 35 35 36 35 35 35 35 35 37 37 36 36 36 35 34 33 32 30 29 28 28 29 29
30 31 31 32 33 33 33 33 34 34 35 34 34 34 34 34 35 35 35 34 34 34 34 35 35 35 35 35 35 33 31 29 28 27 27 27 28 28
27 28 29 29 30 31 31 32 33 33 33 33 33 33 34 34 33 33 33 32 33 33 34 34 34 34 34 33 32 32 30 28 27 27 27 27 27 28
26 26 27 27 28 29 30 30 30 30 29 30 30 30 30 31 31 32 32 32 32 33 33 32 32 32 32 31 31 30 29 27 26 26 26 26 26 27
26 26 26 27 28 28 29 29 29 29 29 29 29 29 29 29 30 30 30 31 31 31 31 31 31 31 30 30 29 28 28 27 26 26 25 25 24 25
26 27 27 28 28 28 28 29 29 29 29 29 29 29 29 29 29 30 30 30 30 30 30 30 30 29 28 28 27 26 25 25 24 24 23 22 22 23
26 26 27 27 27 27 28 29 28 28 29 29 28 28 28 28 28 28 29 29 29 29 29 29 28 27 26 26 24 24 23 22 21 20 20 20 20 21
Wind_Direction
271 271 271 271 273 274 275 275 276 276 275 276 276 276 277 278 279 280 280 281 281 281 282 283 282 283 282 281 280 281 280 281 281 281 282 284 285 286
271 271 271 271 273 273 274 274 276 277 276 276 275 276 276 277 279 279 278 279 280 281 282 283 283 284 283 282 281 280 280 281 281 282 283 284 285 286
272 272 272 272 273 273 273 274 276 276 276 276 276 275 275 276 278 278 278 278 279 280 281 283 284 285 284 283 282 280 281 282 282 282 283 284 285 286
271 271 270 271 272 272 272 273 274 275 276 275 274 274 275 276 276 278 277 278 278 279 281 282 283 285 285 284 283 282 282 282 282 283 283 284 286 286
271 270 270 271 272 272 272 273 273 273 274 274 274 275 275 276 276 277 277 277 277 278 280 281 283 285 286 285 284 283 282 282 283 284 284 284 285 287
270 269 271 272 272 272 272 272 272 272 273 273 275 277 277 277 276 276 276 276 276 278 280 281 283 285 285 286 285 284 283 283 284 285 285 285 285 286
268 269 271 271 271 271 272 271 271 272 272 273 275 277 278 278 277 276 276 276 276 278 279 281 282 285 285 285 286 286 284 284 286 286 286 286 285 285
269 270 271 270 269 270 271 271 272 272 273 274 276 277 278 278 277 277 278 277 276 277 279 280 282 284 286 286 286 286 286 285 286 287 287 288 287 285
270 271 270 270 270 269 270 271 271 271 273 275 275 277 277 278 278 278 279 279 279 278 279 281 282 284 285 286 286 286 286 286 287 287 287 287 287 284
271 270 270 270 270 270 269 270 271 270 272 273 275 276 276 277 279 280 279 279 279 280 282 283 283 284 285 287 286 286 287 287 287 287 287 286 286 283
270 270 270 269 268 269 269 270 270 270 270 272 274 276 276 278 280 280 279 279 279 281 283 284 285 286 287 287 287 286 287 288 288 287 286 285 284 282
269 268 269 269 267 268 269 269 270 270 269 270 272 274 276 279 281 281 280 280 280 281 282 284 286 287 288 288 288 288 289 289 289 287 286 284 282 280
268 267 267 268 268 268 269 270 269 270 270 271 272 273 275 277 279 281 282 282 282 281 282 284 286 287 289 290 289 289 289 290 289 287 285 283 281 279
267 267 268 267 267 268 269 270 269 269 271 273 273 273 273 276 279 281 282 282 282 282 283 285 287 288 290 291 291 291 291 291 290 288 285 283 281 279
266 265 265 265 266 267 268 270 271 271 272 273 274 274 274 276 277 279 280 281 282 283 284 286 288 289 290 291 292 291 291 290 290 287 284 282 281 280
265 264 265 265 266 267 269 270 272 273 275 276 276 275 275 275 276 278 280 282 281 282 284 287 288 289 290 291 293 292 291 290 289 285 283 282 282 282
263 263 265 267 267 269 269 270 272 275 276 276 277 277 277 277 277 279 280 281 282 283 284 286 288 290 291 292 293 292 290 288 287 284 283 284 283 283
264 264 266 267 268 269 270 271 273 275 277 277 277 277 277 279 280 280 280 281 283 284 285 286 288 289 290 291 291 291 290 287 285 284 285 284 283 283
266 266 268 268 269 269 270 272 274 276 277 276 276 277 278 279 280 281 280 280 283 285 286 288 289 289 289 289 289 288 287 285 284 283 283 284 283 283
267 267 268 270 270 271 272 274 275 276 277 277 277 279 280 281 281 282 282 282 283 284 286 287 289 289 289 288 287 286 286 285 283 282 283 285 285 284
268 268 268 269 269 271 272 273 276 278 278 279 279 280 281 283 283 284 285 285 285 285 286 288 289 290 289 288 286 284 283 284 283 283 285 284 284 285
270 269 269 270 270 270 271 273 276 278 278 280 281 281 282 284 284 284 285 286 287 287 288 289 289 288 287 287 285 283 283 284 284 285 286 287 286 288
271 271 271 272 271 271 271 273 276 277 278 279 280 282 283 284 285 286 286 287 288 287 288 289 288 286 287 285 282 282 283 283 282 283 286 288 290 292
Height
5687 5686 5687 5687 5686 5686 5686 5685 5685 5685 5686 5686 5686 5684 5683 5682 5681 5680 5679 5677 5675 5673 5672 5671 5669 5667 5666 5665 5664 5663 5663 5662 5661 5660 5659 5658 5657 5655
5674 5673 5674 5674 5674 5673 5673 5672 5671 5672 5672 5673 5673 5672 5671 5670 5669 5668 5667 5665 5664 5662 5661 5659 5658 5656 5654 5653 5652 5651 5650 5649 5648 5648 5646 5645 5643 5641
5660 5660 5660 5660 5660 5660 5660 5659 5659 5658 5659 5660 5659 5659 5658 5658 5657 5656 5655 5654 5652 5651 5649 5648 5646 5644 5643 5641 5640 5639 5638 5637 5636 5635 5633 5632 5630 5628
5646 5646 5647 5647 5647 5647 5647 5646 5646 5646 5646 5646 5646 5646 5645 5645 5644 5643 5643 5642 5640 5639 5638 5636 5635 5633 5630 5629 5627 5626 5625 5624 5623 5621 5620 5619 5617 5614
5633 5633 5634 5634 5635 5634 5634 5634 5633 5633 5633 5633 5633 5633 5633 5632 5632 5631 5630 5629 5628 5627 5626 5624 5623 5621 5618 5616 5615 5613 5612 5611 5610 5608 5606 5604 5603 5600
5620 5620 5621 5621 5622 5622 5621 5621 5621 5621 5620 5620 5621 5621 5620 5620 5619 5618 5618 5617 5616 5615 5614 5612 5610 5608 5606 5604 5602 5601 5599 5598 5596 5595 5593 5591 5589 5587
5607 5607 5608 5608 5608 5609 5609 5609 5609 5609 5608 5608 5609 5608 5608 5607 5607 5606 5605 5604 5603 5603 5602 5601 5599 5597 5594 5592 5589 5587 5586 5584 5583 5581 5579 5577 5575 5573
5594 5594 5595 5595 5596 5596 5596 5596 5596 5596 5596 5596 5597 5597 5597 5596 5595 5593 5593 5592 5592 5592 5590 5588 5586 5584 5582 5580 5577 5575 5573 5571 5570 5568 5566 5563 5561 5559
5581 5582 5582 5583 5583 5583 5584 5583 5583 5583 5584 5585 5585 5585 5585 5585 5583 5583 5581 5580 5580 5579 5577 5576 5575 5572 5570 5568 5565 5563 5561 5559 5557 5555 5553 5550 5548 5546
5569 5569 5570 5570 5570 5571 5571 5571 5571 5572 5572 5573 5573 5574 5573 5572 5572 5571 5570 5569 5568 5567 5566 5565 5563 5561 5559 5556 5553 5550 5548 5546 5544 5541 5539 5537 5535 5533
5556 5556 5557 5558 5558 5558 5559 5560 5560 5560 5560 5561 5562 5562 5561 5561 5560 5559 5558 5557 5557 5556 5555 5553 5552 5550 5548 5545 5541 5539 5536 5533 5531 5528 5526 5524 5522 5521
5544 5544 5545 5546 5546 5546 5547 5548 5549 5550 5550 5551 5551 5551 5551 5550 5549 5548 5547 5546 5545 5545 5544 5542 5540 5538 5537 5535 5531 5528 5524 5521 5518 5516 5513 5511 5510 5509
5533 5534 5534 5535 5535 5536 5536 5537 5538 5539 5539 5539 5540 5540 5540 5539 5538 5537 5536 5535 5534 5533 5532 5531 5529 5527 5525 5523 5520 5517 5513 5510 5507 5504 5502 5500 5499 5498
5522 5523 5524 5524 5525 5526 5526 5527 5527 5528 5528 5529 5529 5529 5529 5529 5528 5527 5525 5524 5523 5522 5521 5519 5518 5516 5513 5511 5509 5506 5503 5499 5496 5494 5491 5490 5489 5488
5511 5512 5514 5514 5515 5515 5516 5517 5517 5518 5518 5518 5519 5519 5518 5518 5517 5516 5515 5514 5513 5511 5510 5508 5507 5505 5502 5500 5498 5495 5492 5489 5486 5484 5482 5481 5480 5479
5501 5502 5503 5504 5505 5506 5507 5507 5508 5508 5508 5508 5508 5508 5507 5507 5506 5506 5505 5504 5503 5502 5500 5498 5496 5494 5492 5489 5487 5484 5481 5479 5477 5475 5473 5472 5471 5470
5491 5493 5494 5495 5496 5497 5497 5498 5498 5498 5498 5498 5498 5498 5497 5497 5496 5496 5495 5494 5493 5492 5491 5489 5486 5483 5481 5478 5477 5474 5472 5469 5467 5466 5465 5464 5462 5462
5482 5483 5485 5486 5487 5488 5488 5489 5489 5489 5489 5488 5488 5488 5488 5487 5486 5486 5485 5484 5483 5482 5480 5479 5477 5475 5472 5469 5467 5465 5463 5461 5459 5457 5456 5455 5455 5453
5473 5474 5476 5477 5478 5478 5479 5479 5480 5479 5479 5479 5479 5478 5478 5477 5476 5476 5475 5474 5473 5472 5470 5469 5467 5465 5463 5461 5458 5455 5454 5452 5450 5449 5448 5447 5446 5446
5465 5466 5467 5468 5469 5469 5470 5470 5470 5470 5470 5470 5470 5469 5469 5468 5467 5467 5466 5465 5464 5462 5461 5459 5457 5455 5453 5451 5448 5446 5444 5443 5442 5441 5441 5439 5438 5437
5458 5458 5459 5459 5460 5461 5461 5461 5462 5462 5462 5461 5461 5461 5460 5460 5459 5458 5457 5456 5455 5453 5452 5450 5447 5445 5443 5441 5440 5438 5436 5434 5434 5433 5432 5432 5431 5430
5450 5450 5451 5451 5452 5452 5452 5453 5453 5453 5453 5453 5453 5452 5452 5451 5450 5449 5448 5447 5445 5444 5442 5440 5438 5436 5434 5433 5432 5430 5429 5428 5426 5425 5424 5424 5423 5422
5442 5442 5443 5443 5443 5444 5444 5444 5445 5445 5444 5444 5444 5444 5443 5442 5441 5440 5439 5438 5436 5435 5433 5431 5429 5428 5426 5425 5424 5423 5422 5421 5420 5419 5418 5417 5416 5415